Airfield :
LOGIN :

Register | Disclaimer

   EN    FR    IT 

 










Legend :    VFR   Marginal VFR   IFR   Intensive IFR   Very Intensive IFR
Visi :
Ceiling :
>= 8 km
>= 3000ft
5 to 8 km
1000 to 3000 ft
1500m to 5 km
500 to 1000 ft
800 to 1500m
200 to 500 ft
< 800m
< 200 ft
Symbols :   Thunderstorms  Fog  Heavy snow  Heavy precipitations  Wind > 20 kt
SIGMETs :     Misc.  Thunderstorms  Icing  Turbulence  Mountain Waves  Volcanic Ashes







- Airport Elevation : 628 ft
- IATA code : CMR
- Download approach charts


LFGA - Colmar-Houssen

CURRENT METAR :
  • 141000Z AUTO 29006KT 230V330 9999 FEW052 BKN062 24/12 Q1016

EXPIRED METARs :
  • 140930Z AUTO 29005KT 250V340 9999 FEW045 OVC060 24/12 Q1016
  • 140900Z AUTO 32005KT 260V020 9999 FEW001 SCT064 23/12 Q1016
  • 140830Z AUTO 31008KT 270V340 CAVOK 23/13 Q1016
  • 140800Z AUTO 29004KT 260V320 CAVOK 22/13 Q1016
  • 140730Z AUTO 17003KT 120V210 CAVOK 21/14 Q1016

TAF N/A
No reported NOTAMs for that airfield.



MET'MAP, your aeronautical weather chart ! - Copyright ORBIFLY December 2007 - Disclaimer

ORBIFLY MET'MAP TEAM :

Programming & Development : Alexandra Zaïnal
Concept & Development : Baudouin d'Aumeries
Co-Development & Prog : Marc-Olivier Méhu
Technical & hardware support : Manuel Goepfert

Contact : metmap@orbifly.com




SOURCES & CREDITS :

   NOAA